| time (UTC) | temp F | wind direction | speed MPH | gust MPH | rain 1hr in | rain 24hr in | rain mn in | humidity % | barometer mb |
| 20260903005527 | 79 | 140 | 0.0 | 8.0 | 0.00 | 0.00 | 0.00 | 33 | 1001.9 |
| 20260903005026 | 79 | 140 | 1.0 | 9.0 | 0.00 | 0.00 | 0.00 | 32 | 1001.9 |
| 20260903004529 | 79 | 135 | 1.0 | 9.0 | 0.00 | 0.00 | 0.00 | 32 | 1001.9 |
| 20260903004026 | 80 | 139 | 2.0 | 10.0 | 0.00 | 0.00 | 0.00 | 31 | 1001.8 |
| 20260903003526 | 80 | 138 | 3.0 | 10.0 | 0.00 | 0.00 | 0.00 | 32 | 1001.8 |
| 20260903003026 | 80 | 146 | 2.0 | 10.0 | 0.00 | 0.00 | 0.00 | 31 | 1001.8 |
| 20260903002530 | 80 | 148 | 3.0 | 9.0 | 0.00 | 0.00 | 0.00 | 31 | 1001.8 |
| 20260903002025 | 80 | 141 | 0.0 | 9.0 | 0.00 | 0.00 | 0.00 | 32 | 1001.8 |
| 20260903001525 | 80 | 140 | 1.0 | 10.0 | 0.00 | 0.00 | 0.00 | 31 | 1001.8 |
| 20260903001024 | 81 | 140 | 4.0 | 12.0 | 0.00 | 0.00 | 0.00 | 30 | 1001.7 |
| 20260903000524 | 81 | 139 | 3.0 | 12.0 | 0.00 | 0.00 | 0.00 | 30 | 1001.8 |
| 20260903000027 | 81 | 146 | 5.0 | 12.0 | 0.00 | 0.00 | 0.00 | 30 | 1001.7 |
| 20260902235524 | 81 | 145 | 3.0 | 18.0 | 0.00 | 0.00 | 0.00 | 31 | 1001.7 |
| 20260902235023 | 81 | 150 | 7.0 | 18.0 | 0.00 | 0.00 | 0.00 | 30 | 1001.8 |
| 20260902234522 | 82 | 141 | 6.0 | 13.0 | 0.00 | 0.00 | 0.00 | 30 | 1001.8 |
| 20260902234022 | 82 | 141 | 4.0 | 15.0 | 0.00 | 0.00 | 0.00 | 30 | 1001.8 |
| 20260902233521 | 82 | 154 | 6.0 | 19.0 | 0.00 | 0.00 | 0.00 | 30 | 1001.8 |
| 20260902233021 | 82 | 144 | 4.0 | 19.0 | 0.00 | 0.00 | 0.00 | 30 | 1001.8 |
| 20260902232521 | 82 | 141 | 7.0 | 16.0 | 0.00 | 0.00 | 0.00 | 30 | 1001.9 |
| 20260902232020 | 82 | 146 | 5.0 | 17.0 | 0.00 | 0.00 | 0.00 | 31 | 1001.9 |
| 20260902231523 | 82 | 145 | 3.0 | 17.0 | 0.00 | 0.00 | 0.00 | 30 | 1002.0 |
| 20260902231024 | 82 | 140 | 3.0 | 22.0 | 0.00 | 0.00 | 0.00 | 29 | 1002.0 |
| 20260902230519 | 82 | 134 | 9.0 | 22.0 | 0.00 | 0.00 | 0.00 | 30 | 1002.0 |
| 20260902230019 | 82 | 142 | 1.0 | 11.0 | 0.00 | 0.00 | 0.00 | 29 | 1002.0 |
| 20260902225516 | 82 | 143 | 3.0 | 16.0 | 0.00 | 0.00 | 0.00 | 29 | 1002.1 |
| 20260902225016 | 82 | 148 | 8.0 | 16.0 | 0.00 | 0.00 | 0.00 | 29 | 1002.1 |
| 20260902224516 | 82 | 139 | 5.0 | 15.0 | 0.00 | 0.00 | 0.00 | 30 | 1002.2 |
| 20260902224017 | 82 | 147 | 2.0 | 15.0 | 0.00 | 0.00 | 0.00 | 30 | 1002.3 |
| 20260902223515 | 82 | 148 | 3.0 | 15.0 | 0.00 | 0.00 | 0.00 | 29 | 1002.3 |
| 20260902223021 | 83 | 145 | 1.0 | 18.0 | 0.00 | 0.00 | 0.00 | 30 | 1002.3 |
| 20260902222514 | 83 | 150 | 6.0 | 18.0 | 0.00 | 0.00 | 0.00 | 30 | 1002.4 |
| 20260902222015 | 83 | 135 | 4.0 | 16.0 | 0.00 | 0.00 | 0.00 | 28 | 1002.5 |
| 20260902221518 | 83 | 153 | 2.0 | 10.0 | 0.00 | 0.00 | 0.00 | 28 | 1002.5 |
| 20260902221013 | 83 | 141 | 2.0 | 14.0 | 0.00 | 0.00 | 0.00 | 28 | 1002.6 |
| 20260902220511 | 83 | 142 | 6.0 | 15.0 | 0.00 | 0.00 | 0.00 | 29 | 1002.7 |
| 20260902220011 | 83 | 137 | 4.0 | 15.0 | 0.00 | 0.00 | 0.00 | 30 | 1002.8 |
| 20260902215509 | 83 | 148 | 5.0 | 14.0 | 0.00 | 0.00 | 0.00 | 29 | 1002.8 |
| 20260902215008 | 83 | 150 | 5.0 | 14.0 | 0.00 | 0.00 | 0.00 | 28 | 1003.0 |
| 20260902214509 | 83 | 144 | 6.0 | 14.0 | 0.00 | 0.00 | 0.00 | 29 | 1003.0 |
| 20260902214009 | 84 | 148 | 5.0 | 14.0 | 0.00 | 0.00 | 0.00 | 31 | 1003.2 |
| 20260902213506 | 84 | 142 | 4.0 | 15.0 | 0.00 | 0.00 | 0.00 | 30 | 1003.3 |
| 20260902213006 | 84 | 143 | 4.0 | 15.0 | 0.00 | 0.00 | 0.00 | 27 | 1003.4 |
| 20260902212505 | 84 | 164 | 6.0 | 14.0 | 0.00 | 0.00 | 0.00 | 28 | 1003.4 |
| 20260902212007 | 84 | 157 | 4.0 | 14.0 | 0.00 | 0.00 | 0.00 | 29 | 1003.5 |
| 20260902211505 | 84 | 152 | 6.0 | 13.0 | 0.00 | 0.00 | 0.00 | 28 | 1003.5 |
| 20260902211004 | 85 | 148 | 8.0 | 14.0 | 0.00 | 0.00 | 0.00 | 28 | 1003.5 |
| 20260902210504 | 85 | 161 | 3.0 | 14.0 | 0.00 | 0.00 | 0.00 | 26 | 1003.8 |
| 20260902210006 | 85 | 138 | 2.0 | 12.0 | 0.00 | 0.00 | 0.00 | 26 | 1003.9 |
| 20260902205503 | 85 | 147 | 0.0 | 13.0 | 0.00 | 0.00 | 0.00 | 27 | 1003.8 |
| 20260902205003 | 86 | 146 | 6.0 | 13.0 | 0.00 | 0.00 | 0.00 | 25 | 1003.9 |
| 20260902204501 | 86 | 150 | 1.0 | 12.0 | 0.00 | 0.00 | 0.00 | 27 | 1003.9 |
| 20260902204000 | 86 | 151 | 0.0 | 10.0 | 0.00 | 0.00 | 0.00 | 27 | 1004.0 |
| 20260902203600 | 86 | 150 | 3.0 | 11.0 | 0.00 | 0.00 | 0.00 | 28 | 1004.1 |
| 20260902203059 | 86 | 152 | 2.0 | 11.0 | 0.00 | 0.00 | 0.00 | 27 | 1004.1 |
| 20260902202602 | 85 | 153 | 0.0 | 12.0 | 0.00 | 0.00 | 0.00 | 27 | 1004.2 |
| 20260902202059 | 85 | 153 | 6.0 | 12.0 | 0.00 | 0.00 | 0.00 | 27 | 1004.2 |
| 20260902201557 | 86 | 144 | 6.0 | 12.0 | 0.00 | 0.00 | 0.00 | 25 | 1004.3 |
| 20260902201102 | 86 | 206 | 1.0 | 8.0 | 0.00 | 0.00 | 0.00 | 28 | 1004.4 |
| 20260902200556 | 85 | 158 | 0.0 | 8.0 | 0.00 | 0.00 | 0.00 | 26 | 1004.4 |
| 20260902200056 | 85 | 160 | 1.0 | 9.0 | 0.00 | 0.00 | 0.00 | 27 | 1004.5 |
| 20260902195553 | 85 | 158 | 2.0 | 9.0 | 0.00 | 0.00 | 0.00 | 27 | 1004.6 |
| 20260902195053 | 85 | 162 | 0.0 | 6.0 | 0.00 | 0.00 | 0.00 | 28 | 1004.6 |
| 20260902194553 | 85 | 162 | 0.0 | 7.0 | 0.00 | 0.00 | 0.00 | 25 | 1004.7 |
| 20260902194052 | 85 | 212 | 0.0 | 7.0 | 0.00 | 0.00 | 0.00 | 26 | 1004.7 |
| 20260902193551 | 85 | 166 | 3.0 | 7.0 | 0.00 | 0.00 | 0.00 | 27 | 1004.7 |
| 20260902193052 | 85 | 202 | 0.0 | 5.0 | 0.00 | 0.00 | 0.00 | 28 | 1004.8 |
| 20260902192555 | 84 | 152 | 0.0 | 5.0 | 0.00 | 0.00 | 0.00 | 27 | 1004.9 |
| 20260902192053 | 84 | 152 | 1.0 | 5.0 | 0.00 | 0.00 | 0.00 | 27 | 1005.0 |
| 20260902191549 | 85 | 152 | 0.0 | 4.0 | 0.00 | 0.00 | 0.00 | 27 | 1005.1 |
| 20260902191048 | 85 | 152 | 0.0 | 12.0 | 0.00 | 0.00 | 0.00 | 27 | 1005.1 |
| 20260902190548 | 85 | 151 | 1.0 | 12.0 | 0.00 | 0.00 | 0.00 | 27 | 1005.2 |
| 20260902190047 | 85 | 152 | 0.0 | 3.0 | 0.00 | 0.00 | 0.00 | 27 | 1005.3 |
| 20260902185548 | 85 | 150 | 0.0 | 17.0 | 0.00 | 0.00 | 0.00 | 28 | 1005.4 |
| 20260902185047 | 85 | 150 | 7.0 | 17.0 | 0.00 | 0.00 | 0.00 | 27 | 1005.5 |
| 20260902184543 | 85 | 160 | 0.0 | 9.0 | 0.00 | 0.00 | 0.00 | 28 | 1005.6 |
| 20260902184042 | 85 | 161 | 0.0 | 9.0 | 0.00 | 0.00 | 0.00 | 26 | 1005.6 |
| 20260902183541 | 85 | 161 | 0.0 | 11.0 | 0.00 | 0.00 | 0.00 | 27 | 1005.8 |
| 20260902183054 | 85 | 197 | 0.0 | 7.0 | 0.00 | 0.00 | 0.00 | 28 | 1005.9 |
| 20260902182539 | 85 | 201 | 0.0 | 5.0 | 0.00 | 0.00 | 0.00 | 27 | 1005.9 |
| 20260902182041 | 85 | 207 | 0.0 | 1.0 | 0.00 | 0.00 | 0.00 | 27 | 1006.0 |
| 20260902181539 | 85 | 208 | 0.0 | 3.0 | 0.00 | 0.00 | 0.00 | 29 | 1006.2 |
| 20260902181035 | 84 | 200 | 0.0 | 3.0 | 0.00 | 0.00 | 0.00 | 28 | 1006.3 |
| 20260902180533 | 84 | 155 | 0.0 | 0.0 | 0.00 | 0.00 | 0.00 | 29 | 1006.4 |
| 20260902180038 | 84 | 153 | 0.0 | 0.0 | 0.00 | 0.00 | 0.00 | 28 | 1006.4 |
| 20260902175532 | 84 | 153 | 0.0 | 0.0 | 0.00 | 0.00 | 0.00 | 30 | 1006.5 |
| 20260902175030 | 83 | 153 | 0.0 | 0.0 | 0.00 | 0.00 | 0.00 | 29 | 1006.5 |
| 20260902174529 | 83 | 153 | 0.0 | 4.0 | 0.00 | 0.00 | 0.00 | 31 | 1006.6 |
| 20260902174027 | 83 | 152 | 0.0 | 5.0 | 0.00 | 0.00 | 0.00 | 31 | 1006.7 |
| 20260902173527 | 82 | 153 | 0.0 | 5.0 | 0.00 | 0.00 | 0.00 | 30 | 1006.8 |
| 20260902173028 | 82 | 153 | 0.0 | 5.0 | 0.00 | 0.00 | 0.00 | 31 | 1006.9 |
| 20260902172522 | 81 | 152 | 0.0 | 4.0 | 0.00 | 0.00 | 0.00 | 32 | 1006.9 |
| 20260902172021 | 81 | 153 | 0.0 | 8.0 | 0.00 | 0.00 | 0.00 | 31 | 1006.9 |
| 20260902171521 | 81 | 153 | 0.0 | 10.0 | 0.00 | 0.00 | 0.00 | 33 | 1007.0 |
| 20260902171019 | 81 | 153 | 1.0 | 8.0 | 0.00 | 0.00 | 0.00 | 33 | 1007.1 |
| 20260902170519 | 80 | 149 | 0.0 | 10.0 | 0.00 | 0.00 | 0.00 | 34 | 1007.2 |
| 20260902170017 | 80 | 149 | 1.0 | 10.0 | 0.00 | 0.00 | 0.00 | 34 | 1007.2 |
| 20260902165516 | 80 | 149 | 1.0 | 6.0 | 0.00 | 0.00 | 0.00 | 36 | 1007.2 |
| 20260902165015 | 80 | 149 | 0.0 | 6.0 | 0.00 | 0.00 | 0.00 | 32 | 1007.3 |
| 20260902164521 | 79 | 149 | 0.0 | 5.0 | 0.00 | 0.00 | 0.00 | 33 | 1007.4 |
| 20260902164013 | 79 | 149 | 0.0 | 6.0 | 0.00 | 0.00 | 0.00 | 34 | 1007.4 |
| 20260902163512 | 79 | 149 | 0.0 | 9.0 | 0.00 | 0.00 | 0.00 | 36 | 1007.5 |
| 20260902163011 | 78 | 149 | 0.0 | 9.0 | 0.00 | 0.00 | 0.00 | 34 | 1007.5 |
| 20260902162509 | 78 | 148 | 0.0 | 8.0 | 0.00 | 0.00 | 0.00 | 35 | 1007.5 |
| 20260902162008 | 78 | 148 | 3.0 | 8.0 | 0.00 | 0.00 | 0.00 | 35 | 1007.5 |
| 20260902161507 | 78 | 143 | 0.0 | 5.0 | 0.00 | 0.00 | 0.00 | 36 | 1007.4 |
| 20260902161006 | 78 | 143 | 0.0 | 5.0 | 0.00 | 0.00 | 0.00 | 38 | 1007.5 |
| 20260902160504 | 77 | 143 | 0.0 | 6.0 | 0.00 | 0.00 | 0.00 | 39 | 1007.5 |
| 20260902160002 | 77 | 133 | 1.0 | 6.0 | 0.00 | 0.00 | 0.00 | 37 | 1007.5 |
| 20260902155501 | 77 | 39 | 0.0 | 0.0 | 0.00 | 0.00 | 0.00 | 37 | 1007.6 |
| 20260902155059 | 77 | 39 | 0.0 | 0.0 | 0.00 | 0.00 | 0.00 | 38 | 1007.7 |
| 20260902154559 | 77 | 39 | 0.0 | 0.0 | 0.00 | 0.00 | 0.00 | 39 | 1007.8 |
| 20260902154057 | 76 | 16 | 0.0 | 0.0 | 0.00 | 0.00 | 0.00 | 38 | 1008.0 |
| 20260902153556 | 76 | 360 | 0.0 | 0.0 | 0.00 | 0.00 | 0.00 | 38 | 1007.9 |
| 20260902153105 | 76 | 356 | 0.0 | 0.0 | 0.00 | 0.00 | 0.00 | 39 | 1008.0 |
| 20260902152558 | 75 | 356 | 0.0 | 0.0 | 0.00 | 0.00 | 0.00 | 38 | 1008.0 |
| 20260902152050 | 75 | 356 | 0.0 | 0.0 | 0.00 | 0.00 | 0.00 | 38 | 1008.1 |
| 20260902151549 | 74 | 356 | 0.0 | 0.0 | 0.00 | 0.00 | 0.00 | 43 | 1008.1 |
| 20260902151047 | 74 | 356 | 0.0 | 0.0 | 0.00 | 0.00 | 0.00 | 44 | 1008.2 |
| 20260902150545 | 73 | 356 | 0.0 | 0.0 | 0.00 | 0.00 | 0.00 | 42 | 1008.2 |
| 20260902150044 | 73 | 356 | 0.0 | 0.0 | 0.00 | 0.00 | 0.00 | 44 | 1008.2 |
| 20260902145541 | 72 | 356 | 0.0 | 0.0 | 0.00 | 0.00 | 0.00 | 47 | 1008.3 |
| 20260902145043 | 71 | 356 | 0.0 | 0.0 | 0.00 | 0.00 | 0.00 | 47 | 1008.3 |
| 20260902144540 | 71 | 356 | 0.0 | 0.0 | 0.00 | 0.00 | 0.00 | 47 | 1008.2 |
| 20260902144038 | 70 | 356 | 0.0 | 0.0 | 0.00 | 0.00 | 0.00 | 50 | 1008.3 |
| 20260902143538 | 70 | 356 | 0.0 | 0.0 | 0.00 | 0.00 | 0.00 | 47 | 1008.2 |
| 20260902143034 | 69 | 356 | 0.0 | 0.0 | 0.00 | 0.00 | 0.00 | 49 | 1008.1 |
| 20260902142533 | 68 | 356 | 0.0 | 0.0 | 0.00 | 0.00 | 0.00 | 52 | 1008.1 |
| 20260902142031 | 67 | 356 | 0.0 | 0.0 | 0.00 | 0.00 | 0.00 | 53 | 1008.0 |
| 20260902141529 | 66 | 356 | 0.0 | 0.0 | 0.00 | 0.00 | 0.00 | 57 | 1008.1 |
| 20260902141028 | 65 | 356 | 0.0 | 0.0 | 0.00 | 0.00 | 0.00 | 55 | 1008.1 |
| 20260902140527 | 64 | 356 | 0.0 | 0.0 | 0.00 | 0.00 | 0.00 | 61 | 1008.1 |
| 20260902140026 | 62 | 356 | 0.0 | 0.0 | 0.00 | 0.00 | 0.00 | 66 | 1008.1 |
| 20260902135524 | 62 | 356 | 0.0 | 0.0 | 0.00 | 0.00 | 0.00 | 66 | 1008.2 |
| 20260902135023 | 60 | 356 | 0.0 | 0.0 | 0.00 | 0.00 | 0.00 | 72 | 1008.2 |
| 20260902134521 | 59 | 356 | 0.0 | 0.0 | 0.00 | 0.00 | 0.00 | 74 | 1008.3 |
| 20260902134022 | 57 | 356 | 0.0 | 0.0 | 0.00 | 0.00 | 0.00 | 79 | 1008.2 |
| 20260902133517 | 56 | 357 | 0.0 | 0.0 | 0.00 | 0.00 | 0.00 | 83 | 1008.2 |
| 20260902133016 | 55 | 148 | 0.0 | 0.0 | 0.00 | 0.00 | 0.00 | 84 | 1008.2 |
| 20260902132514 | 54 | 141 | 0.0 | 0.0 | 0.00 | 0.00 | 0.00 | 84 | 1008.1 |
| 20260902132013 | 53 | 141 | 0.0 | 0.0 | 0.00 | 0.00 | 0.00 | 84 | 1008.1 |
| 20260902131512 | 52 | 204 | 0.0 | 0.0 | 0.00 | 0.00 | 0.00 | 84 | 1008.1 |
| 20260902131012 | 52 | 204 | 0.0 | 0.0 | 0.00 | 0.00 | 0.00 | 83 | 1008.0 |
| 20260902130509 | 51 | 204 | 0.0 | 0.0 | 0.00 | 0.00 | 0.00 | 83 | 1007.8 |
| 20260902130009 | 51 | 204 | 0.0 | 0.0 | 0.00 | 0.00 | 0.00 | 82 | 1007.7 |
| 20260902125507 | 51 | 204 | 0.0 | 0.0 | 0.00 | 0.00 | 0.00 | 80 | 1007.7 |
| 20260902125005 | 51 | 204 | 0.0 | 0.0 | 0.00 | 0.00 | 0.00 | 80 | 1007.6 |
| 20260902124504 | 51 | 204 | 0.0 | 0.0 | 0.00 | 0.00 | 0.00 | 79 | 1007.5 |
| 20260902124004 | 52 | 204 | 0.0 | 0.0 | 0.00 | 0.00 | 0.00 | 79 | 1007.5 |
| 20260902123501 | 52 | 204 | 0.0 | 0.0 | 0.00 | 0.00 | 0.00 | 78 | 1007.6 |
| 20260902123107 | 52 | 204 | 0.0 | 0.0 | 0.00 | 0.00 | 0.00 | 79 | 1007.5 |
| 20260902122600 | 52 | 204 | 0.0 | 0.0 | 0.00 | 0.00 | 0.00 | 79 | 1007.2 |
| 20260902122059 | 52 | 204 | 0.0 | 0.0 | 0.00 | 0.00 | 0.00 | 78 | 1007.3 |
| 20260902121558 | 52 | 204 | 0.0 | 0.0 | 0.00 | 0.00 | 0.00 | 77 | 1007.2 |
| 20260902121059 | 52 | 204 | 0.0 | 0.0 | 0.00 | 0.00 | 0.00 | 78 | 1007.1 |
| 20260902120601 | 52 | 204 | 0.0 | 0.0 | 0.00 | 0.00 | 0.00 | 77 | 1007.1 |
| 20260902120057 | 53 | 204 | 0.0 | 0.0 | 0.00 | 0.00 | 0.00 | 77 | 1007.0 |
| 20260902115558 | 53 | 204 | 0.0 | 0.0 | 0.00 | 0.00 | 0.00 | 77 | 1007.0 |
| 20260902115057 | 53 | 204 | 0.0 | 0.0 | 0.00 | 0.00 | 0.00 | 77 | 1006.9 |
| 20260902114556 | 53 | 204 | 0.0 | 0.0 | 0.00 | 0.00 | 0.00 | 77 | 1006.9 |
| 20260902114059 | 53 | 204 | 0.0 | 0.0 | 0.00 | 0.00 | 0.00 | 78 | 1006.9 |
| 20260902113556 | 53 | 204 | 0.0 | 0.0 | 0.00 | 0.00 | 0.00 | 79 | 1006.8 |
| 20260902113056 | 53 | 204 | 0.0 | 0.0 | 0.00 | 0.00 | 0.00 | 79 | 1006.7 |
| 20260902112555 | 52 | 204 | 0.0 | 0.0 | 0.00 | 0.00 | 0.00 | 79 | 1006.8 |
| 20260902112055 | 52 | 204 | 0.0 | 0.0 | 0.00 | 0.00 | 0.00 | 80 | 1006.9 |
| 20260902111558 | 52 | 204 | 0.0 | 0.0 | 0.00 | 0.00 | 0.00 | 80 | 1006.9 |
| 20260902111055 | 52 | 204 | 0.0 | 0.0 | 0.00 | 0.00 | 0.00 | 80 | 1006.8 |
| 20260902110554 | 52 | 204 | 0.0 | 0.0 | 0.00 | 0.00 | 0.00 | 80 | 1006.7 |
| 20260902110100 | 52 | 204 | 0.0 | 0.0 | 0.00 | 0.00 | 0.00 | 79 | 1006.7 |
| 20260902105553 | 52 | 204 | 0.0 | 0.0 | 0.00 | 0.00 | 0.00 | 80 | 1006.6 |
| 20260902105053 | 52 | 204 | 0.0 | 0.0 | 0.00 | 0.00 | 0.00 | 79 | 1006.6 |
| 20260902104608 | 52 | 204 | 0.0 | 0.0 | 0.00 | 0.00 | 0.00 | 79 | 1006.7 |
| 20260902104052 | 53 | 204 | 0.0 | 0.0 | 0.00 | 0.00 | 0.00 | 78 | 1006.7 |
| 20260902103551 | 53 | 204 | 0.0 | 0.0 | 0.00 | 0.00 | 0.00 | 78 | 1006.6 |
| 20260902103106 | 53 | 204 | 0.0 | 0.0 | 0.00 | 0.00 | 0.00 | 78 | 1006.5 |
| 20260902102549 | 53 | 204 | 0.0 | 0.0 | 0.00 | 0.00 | 0.00 | 77 | 1006.5 |
| 20260902102049 | 53 | 204 | 0.0 | 0.0 | 0.00 | 0.00 | 0.00 | 77 | 1006.5 |
| 20260902101556 | 53 | 204 | 0.0 | 0.0 | 0.00 | 0.00 | 0.00 | 77 | 1006.5 |
| 20260902101047 | 53 | 204 | 0.0 | 0.0 | 0.00 | 0.00 | 0.00 | 77 | 1006.7 |
| 20260902100550 | 54 | 204 | 0.0 | 0.0 | 0.00 | 0.00 | 0.00 | 76 | 1006.7 |
| 20260902100047 | 54 | 204 | 0.0 | 0.0 | 0.00 | 0.00 | 0.00 | 77 | 1006.6 |
| 20260902095547 | 54 | 204 | 0.0 | 0.0 | 0.00 | 0.00 | 0.00 | 76 | 1006.7 |
| 20260902095045 | 54 | 204 | 0.0 | 0.0 | 0.00 | 0.00 | 0.00 | 76 | 1006.6 |
| 20260902094545 | 54 | 204 | 0.0 | 0.0 | 0.00 | 0.00 | 0.00 | 75 | 1006.6 |
| 20260902094043 | 55 | 204 | 0.0 | 0.0 | 0.00 | 0.00 | 0.00 | 75 | 1006.6 |
| 20260902093543 | 55 | 204 | 0.0 | 0.0 | 0.00 | 0.00 | 0.00 | 74 | 1006.6 |
| 20260902093042 | 55 | 204 | 0.0 | 0.0 | 0.00 | 0.00 | 0.00 | 73 | 1006.6 |
| 20260902092539 | 55 | 204 | 0.0 | 0.0 | 0.00 | 0.00 | 0.00 | 73 | 1006.5 |
| 20260902092038 | 56 | 204 | 0.0 | 0.0 | 0.00 | 0.00 | 0.00 | 72 | 1006.5 |
| 20260902091537 | 56 | 204 | 0.0 | 0.0 | 0.00 | 0.00 | 0.00 | 71 | 1006.4 |
| 20260902091037 | 56 | 204 | 0.0 | 0.0 | 0.00 | 0.00 | 0.00 | 71 | 1006.4 |
| 20260902090536 | 56 | 204 | 0.0 | 0.0 | 0.00 | 0.00 | 0.00 | 71 | 1006.4 |
| 20260902072026 | 62 | 204 | 0.0 | 0.0 | 0.00 | 0.00 | 0.00 | 62 | 1006.5 |
| 20260902071525 | 62 | 204 | 0.0 | 0.0 | 0.00 | 0.00 | 0.00 | 61 | 1006.5 |
| 20260902071024 | 63 | 204 | 0.0 | 0.0 | 0.00 | 0.00 | 0.00 | 61 | 1006.4 |
| 20260902070523 | 63 | 204 | 0.0 | 0.0 | 0.00 | 0.00 | 0.00 | 60 | 1006.4 |
| 20260902070024 | 63 | 204 | 0.0 | 0.0 | 0.00 | 0.00 | 0.00 | 59 | 1006.4 |
| 20260902065519 | 64 | 204 | 0.0 | 0.0 | 0.00 | 0.00 | 0.00 | 59 | 1006.5 |
| 20260902065022 | 64 | 204 | 0.0 | 0.0 | 0.00 | 0.00 | 0.00 | 58 | 1006.5 |
| 20260902064518 | 65 | 204 | 0.0 | 0.0 | 0.00 | 0.00 | 0.00 | 58 | 1006.5 |
| 20260902064016 | 65 | 204 | 0.0 | 0.0 | 0.00 | 0.00 | 0.00 | 57 | 1006.5 |
| 20260902063515 | 65 | 204 | 0.0 | 0.0 | 0.00 | 0.00 | 0.00 | 57 | 1006.4 |
| 20260902063037 | 65 | 204 | 0.0 | 0.0 | 0.00 | 0.00 | 0.00 | 56 | 1006.5 |
| 20260902062516 | 66 | 204 | 0.0 | 0.0 | 0.00 | 0.00 | 0.00 | 56 | 1006.5 |
| 20260902062013 | 66 | 204 | 0.0 | 0.0 | 0.00 | 0.00 | 0.00 | 57 | 1006.4 |
| 20260902061513 | 66 | 204 | 0.0 | 0.0 | 0.00 | 0.00 | 0.00 | 57 | 1006.3 |
| 20260902061013 | 66 | 204 | 0.0 | 0.0 | 0.00 | 0.00 | 0.00 | 58 | 1006.3 |
| 20260902060512 | 66 | 204 | 0.0 | 2.0 | 0.00 | 0.00 | 0.00 | 59 | 1006.3 |
| 20260902060010 | 66 | 203 | 0.0 | 2.0 | 0.00 | 0.00 | 0.00 | 59 | 1006.3 |
| 20260902055510 | 66 | 195 | 0.0 | 0.0 | 0.00 | 0.00 | 0.00 | 59 | 1006.2 |
| 20260902055010 | 67 | 195 | 0.0 | 2.0 | 0.00 | 0.00 | 0.00 | 60 | 1006.2 |
| 20260902054513 | 67 | 196 | 0.0 | 2.0 | 0.00 | 0.00 | 0.00 | 59 | 1006.2 |
| 20260902054010 | 67 | 183 | 0.0 | 0.0 | 0.00 | 0.00 | 0.00 | 59 | 1006.2 |
| 20260902053510 | 67 | 198 | 0.0 | 4.0 | 0.00 | 0.00 | 0.00 | 59 | 1006.3 |
| 20260902053010 | 67 | 159 | 0.0 | 4.0 | 0.00 | 0.00 | 0.00 | 58 | 1006.2 |
| 20260902052509 | 67 | 195 | 0.0 | 4.0 | 0.00 | 0.00 | 0.00 | 58 | 1006.2 |
| 20260902052009 | 67 | 168 | 0.0 | 6.0 | 0.00 | 0.00 | 0.00 | 57 | 1006.3 |
| 20260902051509 | 68 | 204 | 0.0 | 6.0 | 0.00 | 0.00 | 0.00 | 57 | 1006.4 |
| 20260902051009 | 68 | 189 | 0.0 | 4.0 | 0.00 | 0.00 | 0.00 | 56 | 1006.4 |
| 20260902050511 | 68 | 166 | 0.0 | 4.0 | 0.00 | 0.00 | 0.00 | 55 | 1006.3 |
| 20260902050011 | 68 | 175 | 0.0 | 1.0 | 0.00 | 0.00 | 0.00 | 55 | 1006.4 |
| 20260902045508 | 68 | 173 | 0.0 | 4.0 | 0.00 | 0.00 | 0.00 | 55 | 1006.4 |
| 20260902045008 | 68 | 172 | 0.0 | 4.0 | 0.00 | 0.00 | 0.00 | 54 | 1006.4 |
| 20260902044508 | 68 | 199 | 0.0 | 6.0 | 0.00 | 0.00 | 0.00 | 54 | 1006.4 |
| 20260902044008 | 68 | 162 | 1.0 | 6.0 | 0.00 | 0.00 | 0.00 | 53 | 1006.5 |
| 20260902043507 | 68 | 170 | 0.0 | 4.0 | 0.00 | 0.00 | 0.00 | 53 | 1006.6 |
| 20260902043007 | 68 | 187 | 0.0 | 4.0 | 0.00 | 0.00 | 0.00 | 53 | 1006.6 |
| 20260902042508 | 69 | 166 | 0.0 | 4.0 | 0.00 | 0.00 | 0.00 | 53 | 1006.7 |
| 20260902042007 | 69 | 164 | 0.0 | 3.0 | 0.00 | 0.00 | 0.00 | 53 | 1006.8 |
| 20260902041506 | 69 | 162 | 0.0 | 3.0 | 0.00 | 0.00 | 0.00 | 52 | 1006.8 |
| 20260902041006 | 69 | 158 | 0.0 | 2.0 | 0.00 | 0.00 | 0.00 | 52 | 1006.8 |
| 20260902040508 | 69 | 198 | 0.0 | 0.0 | 0.00 | 0.00 | 0.00 | 52 | 1006.8 |
| 20260902040006 | 69 | 168 | 0.0 | 0.0 | 0.00 | 0.00 | 0.00 | 52 | 1006.8 |
| 20260902035506 | 69 | 168 | 0.0 | 8.0 | 0.00 | 0.00 | 0.00 | 52 | 1006.9 |
| 20260902035006 | 70 | 157 | 0.0 | 8.0 | 0.00 | 0.00 | 0.00 | 52 | 1006.7 |
| 20260902034506 | 70 | 156 | 0.0 | 9.0 | 0.00 | 0.00 | 0.00 | 52 | 1006.8 |
| 20260902034005 | 70 | 156 | 0.0 | 9.0 | 0.00 | 0.00 | 0.00 | 52 | 1006.8 |
| 20260902033506 | 70 | 155 | 2.0 | 8.0 | 0.00 | 0.00 | 0.00 | 51 | 1006.8 |
| 20260902033005 | 71 | 155 | 0.0 | 0.0 | 0.00 | 0.00 | 0.00 | 50 | 1006.7 |
| 20260902032508 | 71 | 156 | 0.0 | 0.0 | 0.00 | 0.00 | 0.00 | 50 | 1006.6 |
| 20260902032005 | 71 | 156 | 0.0 | 0.0 | 0.00 | 0.00 | 0.00 | 49 | 1006.6 |
| 20260902031522 | 72 | 156 | 0.0 | 0.0 | 0.00 | 0.00 | 0.00 | 49 | 1006.6 |
| 20260902031005 | 72 | 156 | 0.0 | 8.0 | 0.00 | 0.00 | 0.00 | 49 | 1006.6 |
| 20260902030510 | 72 | 156 | 1.0 | 15.0 | 0.00 | 0.00 | 0.00 | 49 | 1006.7 |
| 20260902030004 | 72 | 157 | 2.0 | 15.0 | 0.00 | 0.00 | 0.00 | 50 | 1006.6 |
| 20260902025504 | 71 | 157 | 3.0 | 12.0 | 0.00 | 0.01 | 0.00 | 50 | 1006.4 |
| 20260902025004 | 71 | 153 | 3.0 | 13.0 | 0.00 | 0.01 | 0.00 | 50 | 1006.4 |
| 20260902024503 | 70 | 152 | 4.0 | 13.0 | 0.00 | 0.01 | 0.00 | 51 | 1006.2 |
| 20260902024007 | 70 | 145 | 0.0 | 9.0 | 0.00 | 0.01 | 0.00 | 52 | 1006.0 |
| 20260902023503 | 70 | 135 | 3.0 | 9.0 | 0.00 | 0.01 | 0.00 | 51 | 1005.8 |
| 20260902023013 | 70 | 135 | 2.0 | 9.0 | 0.00 | 0.01 | 0.00 | 52 | 1005.8 |
| 20260902022503 | 70 | 135 | 0.0 | 0.0 | 0.00 | 0.01 | 0.00 | 52 | 1005.8 |
| 20260902022005 | 71 | 136 | 0.0 | 0.0 | 0.00 | 0.01 | 0.00 | 51 | 1005.8 |
| 20260902021505 | 71 | 135 | 0.0 | 0.0 | 0.00 | 0.01 | 0.00 | 51 | 1005.7 |
| 20260902021002 | 71 | 136 | 0.0 | 0.0 | 0.00 | 0.01 | 0.00 | 51 | 1005.7 |
| 20260902020503 | 72 | 135 | 0.0 | 0.0 | 0.00 | 0.01 | 0.00 | 50 | 1005.6 |
| 20260902020001 | 72 | 136 | 0.0 | 0.0 | 0.00 | 0.01 | 0.00 | 49 | 1005.6 |
| 20260902015501 | 73 | 136 | 0.0 | 0.0 | 0.00 | 0.01 | 0.00 | 49 | 1005.6 |
| 20260902015002 | 73 | 136 | 0.0 | 0.0 | 0.00 | 0.01 | 0.00 | 48 | 1005.5 |
| 20260902014502 | 74 | 135 | 0.0 | 0.0 | 0.00 | 0.01 | 0.00 | 47 | 1005.5 |
| 20260902014001 | 74 | 136 | 0.0 | 0.0 | 0.00 | 0.01 | 0.00 | 47 | 1005.6 |
| 20260902013501 | 74 | 135 | 0.0 | 0.0 | 0.00 | 0.01 | 0.00 | 46 | 1005.5 |
| 20260902013001 | 75 | 136 | 0.0 | 0.0 | 0.00 | 0.01 | 0.00 | 45 | 1005.5 |
| 20260902012501 | 75 | 135 | 0.0 | 2.0 | 0.00 | 0.01 | 0.00 | 44 | 1005.5 |
| 20260902012100 | 75 | 136 | 0.0 | 2.0 | 0.00 | 0.01 | 0.00 | 44 | 1005.5 |
| 20260902011501 | 75 | 136 | 0.0 | 0.0 | 0.00 | 0.01 | 0.00 | 42 | 1005.5 |
| 20260902011101 | 76 | 136 | 0.0 | 4.0 | 0.00 | 0.01 | 0.00 | 42 | 1005.5 |
| 20260902011003 | 76 | 136 | 0.0 | 4.0 | 0.00 | 0.01 | 0.00 | 41 | 1005.5 |
| 20260902010605 | 76 | 136 | 0.0 | 6.0 | 0.00 | 0.01 | 0.00 | 41 | 1005.6 |
| 20260902010105 | 76 | 135 | 1.0 | 6.0 | 0.00 | 0.01 | 0.00 | 40 | 1005.5 |